This demonstration page uses our WeatherBlox Daily Observations layout. Learn more.

Left ArrowRight Arrow

Hourly Observations for June 15, 2021

Temp ( °F °C ) Dew Point ( °F °C ) Humidity (%) Winds ( mph kmh ) Pressure ( in mb ) Visibility ( mi km ) Precip ( " mm )
12:59 am 00:59 Partly Cloudy 78 25.6 71 21.7 79 79 SSW 10 17 29.80 1009 10 16 0.00 0.00
1:59 am 01:59 Partly Cloudy 77 25 71 21.7 82 82 S 10 17 29.77 1008 10 16 0.00 0.00
2:59 am 02:59 Partly Cloudy 76 24.4 70 21.1 82 82 SSW 14 22 29.76 1008 10 16 0.00 0.00
3:59 am 03:59 Partly Cloudy 76 24.4 70 21.1 82 82 SSW 8 13 29.76 1008 10 16 0.00 0.00
4:59 am 04:59 Partly Cloudy 76 24.4 70 21.1 82 82 SW 7 11 29.75 1008 9 14 0.00 0.00
5:59 am 05:59 Partly Cloudy 76 24.4 70 21.1 82 82 W 7 11 29.76 1008 8 13 0.00 0.00
6:53 am 06:53 Mostly Cloudy 75 24 72 22 89 89 WNW 8 13 29.78 1008 7 11 0.00 0.00
6:59 am 06:59 Mostly Cloudy 76 24.4 71 21.7 85 85 W 8 13 29.78 1008 7 11 0.00 0.00
7:29 am 07:29 Mostly Cloudy 77 25 69 20.6 77 77 N 9 15 29.78 1008 10 16 0.00 0.00
7:59 am 07:59 Mostly Cloudy 77 25 66 18.9 69 69 N 13 20 29.78 1009 10 16 0.00 0.00
8:59 am 08:59 Partly Cloudy 78 25.6 66 18.9 67 67 N 13 20 29.79 1009 10 16 0.00 0.00
9:59 am 09:59 Partly Cloudy 78 25.6 67 19.4 69 69 N 14 22 29.80 1009 10 16 0.00 0.00
10:59 am 10:59 Mostly Sunny 78 25.6 65 18.3 64 64 NNE 14 22 29.82 1010 10 16 0.00 0.00
11:59 am 11:59 Mostly Cloudy 78 25.6 66 18.9 67 67 NE 12 19 29.83 1010 10 16 0.00 0.00
12:59 pm 12:59 Mostly Cloudy 79 26.1 66 18.9 65 65 NNE 10 17 29.84 1010 10 16 0.00 0.00
1:59 pm 13:59 Mostly Cloudy 80 26.7 65 18.3 60 60 N 13 20 29.83 1010 10 16 0.00 0.00
2:59 pm 14:59 Mostly Cloudy 80 26.7 65 18.3 60 60 NNE 8 13 29.82 1010 10 16 0.00 0.00
3:59 pm 15:59 Mostly Cloudy 81 27.2 64 17.8 57 57 N 8 13 29.82 1010 10 16 0.00 0.00
4:59 pm 16:59 Partly Cloudy 81 27.2 64 17.8 57 57 NNE 7 11 29.81 1010 10 16 0.00 0.00
5:59 pm 17:59 Partly Cloudy 82 27.8 58 14.4 44 44 NNW 13 20 29.82 1010 10 16 0.00 0.00
6:59 pm 18:59 Partly Cloudy 82 27.8 55 12.8 40 40 NNW 14 22 29.82 1010 10 16 0.00 0.00
7:59 pm 19:59 Mostly Sunny 80 26.7 55 12.8 42 42 NW 13 20 29.82 1010 10 16 0.00 0.00
8:59 pm 20:59 Mostly Clear 78 25.6 57 13.9 48 48 NNW 10 17 29.84 1010 10 16 0.00 0.00
9:59 pm 21:59 Mostly Clear 76 24.4 57 13.9 52 52 NNW 8 13 29.86 1011 10 16 0.00 0.00
10:59 pm 22:59 Mostly Clear 75 23.9 58 14.4 55 55 NNW 7 11 29.87 1012 10 16 0.00 0.00
11:59 pm 23:59 Mostly Clear 73 22.8 59 15 62 62 NW 5 7 29.87 1012 10 16 0.00 0.00

Powered by AerisWeather